DW4063 Weather Reports


Display with metric or nautical units.
time (UTC)temp
F
wind
direction
speed
MPH
gust
MPH
rain 1hr
in
rain 24hr
in
rain mn
in
humidity
%
barometer
mb
20260506040027 47 319 0.0 0.0 0.00 0.12 0.12 72 1011.3
20260506034522 48 319 0.0 0.0 0.00 0.12 0.12 75 1010.9
20260506033020 48 319 0.0 0.0 0.00 0.12 0.12 72 1011.1
20260506031526 48 319 0.0 0.0 0.00 0.12 0.12 74 1010.5
20260506030025 49 319 0.0 0.0 0.00 0.12 0.12 73 1010.4
20260506024538 49 319 0.0 0.0 0.00 0.12 0.12 72 1010.3
20260506023024 49 319 0.0 0.0 0.00 0.12 0.12 71 1010.5
20260506021524 50 319 0.0 0.0 0.00 0.12 0.12 70 1010.2
20260506020028 50 319 0.0 0.0 0.00 0.12 0.12 65 1010.1
20260506014522 51 319 0.0 0.0 0.00 0.12 0.12 64 1009.8
20260506013031 52 319 0.0 0.0 0.00 0.12 0.12 60 1009.8
20260506011555 53 319 0.0 2.0 0.00 0.12 0.12 55 1009.5
20260506010027 53 319 0.0 3.0 0.00 0.12 0.12 45 1009.4
20260506004524 53 322 0.0 3.0 0.00 0.12 0.12 42 1009.2
20260506003023 54 258 0.0 6.0 0.00 0.12 0.12 43 1009.1
20260506001507 54 328 0.0 4.0 0.00 0.12 0.12 42 1009.0
20260506000010 54 317 0.0 7.0 0.00 0.12 0.12 39 1009.2
20260505233012 54 288 0.0 8.0 0.00 0.12 0.12 38 1009.2
20260505231508 55 339 1.0 9.0 0.00 0.13 0.12 37 1009.2
20260505230011 55 294 1.0 9.0 0.00 0.13 0.12 39 1009.2
20260505221518 56 214 1.0 6.0 0.00 0.13 0.12 39 1009.4
20260505220016 55 331 2.0 6.0 0.00 0.14 0.12 35 1009.4
20260505214514 55 16 1.0 5.0 0.00 0.14 0.12 36 1009.7
20260505211526 55 296 2.0 9.0 0.00 0.14 0.12 34 1009.6
20260505210018 55 317 2.0 9.0 0.00 0.14 0.12 35 1009.5
20260505204519 55 236 2.0 8.0 0.00 0.14 0.12 32 1009.6
20260505201514 55 296 1.0 7.0 0.00 0.14 0.12 35 1009.9
20260505200018 55 339 2.0 6.0 0.00 0.14 0.12 35 1009.9
20260505194526 55 329 2.0 8.0 0.00 0.14 0.12 34 1009.8
20260505193023 56 337 2.0 10.0 0.00 0.14 0.12 33 1009.9
20260505191520 56 342 2.0 6.0 0.00 0.14 0.12 37 1010.1
20260505190019 55 214 1.0 9.0 0.00 0.14 0.12 38 1010.1
20260505184519 55 320 2.0 10.0 0.00 0.14 0.12 40 1010.0
20260505183022 56 266 3.0 10.0 0.00 0.14 0.12 37 1010.1
20260505181520 56 234 1.0 8.0 0.00 0.14 0.12 40 1010.0
20260505180027 56 5 2.0 9.0 0.00 0.14 0.12 39 1010.0
20260505174521 56 207 3.0 9.0 0.00 0.14 0.12 39 1009.8
20260505173018 56 315 4.0 11.0 0.00 0.14 0.12 36 1009.8
20260505171522 56 318 1.0 11.0 0.00 0.14 0.12 37 1009.7
20260505170024 56 360 1.0 11.0 0.00 0.14 0.12 39 1009.5
20260505164526 56 328 2.0 14.0 0.00 0.14 0.12 44 1009.5
20260505163024 55 325 1.0 7.0 0.00 0.14 0.12 52 1009.8
20260505161525 54 288 2.0 6.0 0.00 0.14 0.12 46 1009.7
20260505153026 52 246 2.0 8.0 0.00 0.14 0.12 55 1009.4
20260505151515 51 277 2.0 6.0 0.00 0.14 0.12 63 1009.4
20260505124505 45 293 0.0 1.0 0.08 0.10 0.08 84 1009.5
20260505123019 45 329 0.0 2.0 0.06 0.08 0.06 81 1009.7
20260505121530 46 329 0.0 2.0 0.04 0.06 0.04 77 1009.4
20260505120009 48 313 0.0 3.0 0.02 0.04 0.02 73 1009.9
20260505113011 50 313 0.0 6.0 0.00 0.02 0.00 63 1008.6
20260505111505 50 342 1.0 3.0 0.00 0.02 0.00 55 1007.8
20260505101514 51 297 0.0 5.0 0.00 0.02 0.00 57 1006.4
20260505100017 52 333 0.0 2.0 0.00 0.02 0.00 59 1006.7
20260505094524 53 329 0.0 4.0 0.00 0.02 0.00 53 1006.8
20260505093029 53 282 0.0 6.0 0.00 0.02 0.00 53 1006.5
20260505091527 54 324 1.0 4.0 0.00 0.02 0.00 57 1006.7
20260505090015 54 306 1.0 7.0 0.00 0.02 0.00 53 1006.2
20260505084526 55 349 1.0 5.0 0.00 0.02 0.00 51 1005.8
20260505083034 55 319 1.0 7.0 0.00 0.02 0.00 50 1005.5
20260505081525 55 326 1.0 8.0 0.00 0.02 0.00 49 1004.7
20260505080034 55 316 3.0 7.0 0.00 0.02 0.00 49 1004.6
20260505074521 56 355 1.0 6.0 0.00 0.02 0.00 49 1004.2
20260505073019 56 322 2.0 8.0 0.00 0.02 0.00 49 1004.2
20260505071537 56 306 0.0 3.0 0.00 0.02 0.00 50 1003.8
20260505070030 57 297 0.0 4.0 0.00 0.02 0.00 48 1003.5
20260505064526 57 315 0.0 10.0 0.00 0.02 0.00 47 1003.3
20260505063037 58 331 1.0 5.0 0.00 0.02 0.00 48 1003.3
20260505061532 58 333 2.0 10.0 0.00 0.02 0.00 47 1003.2
20260505060022 58 263 1.0 8.0 0.00 0.02 0.00 49 1003.3
20260505054520 58 301 2.0 7.0 0.00 0.02 0.00 50 1003.1
20260505053013 57 333 2.0 6.0 0.00 0.02 0.00 56 1003.4
20260505051517 58 277 0.0 1.0 0.00 0.02 0.00 64 1002.8
20260505041536 61 311 0.0 5.0 0.00 0.02 0.02 67 1002.0